CW4814 Weather Reports


Display with metric or nautical units.
time (UTC)temp
F
wind
direction
speed
MPH
gust
MPH
rain 1hr
in
rain 24hr
in
rain mn
in
humidity
%
barometer
mb
20190222163145 56 81 0.0 0.0 0.00 0.05 0.03 1 1013.7
20190222161720 55 71 0.0 0.0 0.00 0.05 0.03 1 1013.7
20190222160116 54 59 0.0 0.0 0.00 0.05 0.03 1 1013.7
20190222154628 54 83 0.0 0.0 0.00 0.06 0.03 1 1013.8
20190222153127 53 81 0.0 0.0 0.00 0.06 0.03 1 1013.9
20190222151618 52 89 0.0 0.0 0.00 0.06 0.03 1 1014.1
20190222150105 52 77 0.0 1.0 0.00 0.06 0.03 1 1014.3
20190222144604 52 60 0.0 1.0 0.00 0.09 0.03 1 1014.0
20190222143038 51 98 0.0 4.0 0.00 0.09 0.03 1 1013.9
20190222141534 51 71 0.0 1.0 0.00 0.09 0.03 1 1013.9
20190222140038 51 69 0.0 0.0 0.00 0.09 0.03 1 1014.0
20190222134504 51 47 0.0 0.0 0.00 0.23 0.03 1 1014.4
20190222133307 50 21 0.0 0.0 0.00 0.23 0.03 1 1014.2
20190222131732 50 84 0.0 0.0 0.00 0.23 0.03 1 1014.2
20190222130250 50 65 0.0 1.0 0.00 0.23 0.03 1 1013.9
20190222124643 50 80 0.0 0.0 0.00 0.31 0.03 1 1013.5
20190222123208 50 100 0.0 0.0 0.00 0.31 0.03 1 1013.4
20190222121554 50 74 0.0 0.0 0.00 0.31 0.03 1 1013.5
20190222120104 50 329 0.0 1.0 0.00 0.31 0.03 1 1013.7
20190222114555 50 64 0.0 3.0 0.00 0.31 0.03 1 1013.5
20190222113101 50 87 0.0 1.0 0.00 0.31 0.03 1 1013.7
20190222111537 50 48 0.0 3.0 0.00 0.31 0.03 1 1013.5
20190222110030 50 69 0.0 0.0 0.00 0.31 0.03 1 1013.5
20190222104612 50 328 0.0 0.0 0.01 0.33 0.03 1 1013.4
20190222103019 50 21 0.0 0.0 0.01 0.33 0.03 1 1013.4
20190222101502 50 341 0.0 0.0 0.02 0.33 0.03 1 1013.3
20190222100144 50 71 0.0 0.0 0.02 0.33 0.03 1 1013.2
20190222094718 50 59 0.0 0.0 0.01 0.35 0.02 1 1013.2
20190222093153 50 44 0.0 0.0 0.01 0.35 0.02 1 1013.3
20190222091710 50 15 0.0 0.0 0.01 0.34 0.01 1 1013.5
20190222090144 50 355 0.0 0.0 0.01 0.34 0.01 1 1013.4
20190222084626 50 32 0.0 0.0 0.01 0.35 0.01 1 1013.4
20190222083107 50 296 0.0 0.0 0.01 0.35 0.01 1 1013.5
20190222081600 50 321 0.0 0.0 0.00 0.34 0.00 1 1013.8
20190222080046 50 52 0.0 1.0 0.00 0.34 0.00 1 1013.7
20190222074535 50 350 0.0 0.0 0.00 0.34 0.00 1 1013.8
20190222073035 50 41 0.0 0.0 0.00 0.34 0.00 1 1013.7
20190222071556 50 360 0.0 0.0 0.00 0.34 0.00 1 1013.8
20190222070025 50 49 0.0 0.0 0.00 0.34 0.00 1 1013.9
20190222063151 50 71 0.0 1.0 0.00 0.34 0.00 1 1013.4
20190222061629 50 34 0.0 2.0 0.00 0.34 0.00 1 1013.0
20190222060140 50 57 0.0 1.0 0.00 0.34 0.00 1 1013.0
20190222054743 50 98 0.0 0.0 0.00 0.34 0.34 1 1013.0
20190222053059 50 351 0.0 0.0 0.00 0.34 0.34 1 1013.2
20190222051641 50 71 0.0 0.0 0.00 0.34 0.34 1 1013.5
20190222050203 50 9 0.0 0.0 0.00 0.34 0.34 1 1013.2
20190222044640 50 33 0.0 0.0 0.00 0.34 0.34 1 1013.2
20190222043120 50 69 0.0 0.0 0.00 0.34 0.34 1 1013.0
20190222041637 50 83 0.0 0.0 0.00 0.34 0.34 1 1013.0
20190222040226 50 65 0.0 1.0 0.00 0.34 0.34 1 1013.2
20190222034658 50 86 0.0 1.0 0.00 0.34 0.34 1 1012.9
20190222033307 51 42 0.0 2.0 0.00 0.34 0.34 1 1012.8
20190222031609 51 67 0.0 0.0 0.00 0.34 0.34 1 1012.8
20190222030155 51 76 0.0 3.0 0.00 0.34 0.34 1 1012.6
20190222024659 51 81 0.0 1.0 0.00 0.34 0.34 1 1012.3
20190222023050 51 61 0.0 7.0 0.01 0.34 0.34 1 1012.4
20190222021630 51 51 0.0 2.0 0.01 0.34 0.34 1 1012.1
20190222020119 51 360 0.0 3.0 0.01 0.34 0.34 1 1011.9
20190222014611 51 360 0.0 2.0 0.01 0.34 0.34 1 1011.8
20190222013057 51 360 0.0 3.0 0.00 0.33 0.33 1 1012.0
20190222011538 51 360 0.0 2.0 0.00 0.33 0.33 1 1012.0
20190222010057 51 360 0.0 1.0 0.00 0.33 0.33 1 1011.8
20190222004608 51 360 0.0 2.0 0.00 0.33 0.33 1 1011.9
20190222003114 51 360 0.0 3.0 0.00 0.33 0.33 1 1011.9
20190222001513 51 360 0.0 0.0 0.00 0.33 0.33 1 1011.9
20190222000014 51 360 0.0 0.0 0.00 0.33 0.33 1 1011.6
20190221234503 52 360 0.0 0.0 0.00 0.33 0.33 1 1011.6
20190221233007 52 360 0.0 1.0 0.00 0.33 0.33 1 1011.6
20190221231716 52 360 0.0 2.0 0.00 0.33 0.33 1 1011.5
20190221230148 52 360 0.0 5.0 0.00 0.33 0.33 1 1011.5
20190221224727 52 360 0.0 0.0 0.00 0.33 0.33 1 1011.3
20190221223159 52 360 0.0 0.0 0.00 0.33 0.33 1 1011.5
20190221221716 53 360 0.0 1.0 0.00 0.33 0.33 1 1011.3
20190221220223 53 360 0.0 1.0 0.00 0.33 0.33 1 1011.2
20190221214722 53 360 0.0 5.0 0.00 0.33 0.33 1 1011.2
20190221213123 53 360 0.0 4.0 0.00 0.33 0.33 1 1010.9
20190221211627 53 360 0.0 0.0 0.00 0.33 0.33 1 1010.9
20190221210134 53 360 0.0 2.0 0.00 0.33 0.33 1 1010.9
20190221204614 53 360 0.0 0.0 0.00 0.33 0.33 1 1011.0
20190221203057 53 360 0.0 1.0 0.00 0.33 0.33 1 1011.4
20190221201539 53 360 0.0 3.0 0.00 0.33 0.33 1 1011.4
20190221200040 52 360 0.0 3.0 0.00 0.33 0.33 1 1011.5
20190221194527 52 360 0.0 4.0 0.00 0.33 0.33 1 1011.6
20190221193026 52 360 0.0 2.0 0.00 0.33 0.33 1 1011.6
20190221191526 52 360 0.0 4.0 0.00 0.33 0.33 1 1011.9
20190221190012 52 360 0.0 4.0 0.00 0.33 0.33 1 1012.1
20190221184512 52 360 0.0 1.0 0.00 0.33 0.33 1 1012.1
20190221183025 52 360 0.0 2.0 0.00 0.33 0.33 1 1012.1
20190221181514 51 360 0.0 4.0 0.01 0.33 0.33 1 1012.5
20190221180006 51 360 0.0 3.0 0.01 0.33 0.33 1 1012.5
20190221174504 51 360 0.0 3.0 0.01 0.33 0.33 1 1012.7
20190221173004 51 360 0.0 3.0 0.01 0.33 0.33 1 1012.6
20190221171510 51 360 0.0 2.0 0.00 0.32 0.32 1 1012.8
20190221170008 51 360 0.0 6.0 0.00 0.32 0.32 1 1013.0
20190221164743 51 98 0.0 3.0 0.00 0.32 0.32 1 1012.9